This is the latest recevied weather packets stored in our database for station/object EA3FHP. If no packets are shown the sender has not sent any weather packets the latest 10 day(s).
| Time | Temp. | Humidity | Pressure | Rain* | Wind** | Luminosity | Snow |
|---|---|---|---|---|---|---|---|
| 1777125604 | 23.33° C | 56% | 1017.9 hPa | 0 mm | - | - | - |
| 1777125003 | 23.33° C | 54% | 1017.5 hPa | 0 mm | - | - | - |
| 1777124404 | 23.33° C | 55% | 1017.8 hPa | 0 mm | - | - | - |
| 1777123803 | 23.89° C | 58% | 1017.6 hPa | 0 mm | - | - | - |
| 1777123204 | 24.44° C | 53% | 1017.8 hPa | 0 mm | - | - | - |
| 1777122603 | 23.89° C | 49% | 1017.8 hPa | 0 mm | - | - | - |
| 1777122004 | 23.33° C | 50% | 1018 hPa | 0 mm | - | - | - |
| 1777121404 | 23.33° C | 51% | 1018 hPa | 0 mm | - | - | - |
| 1777120803 | 23.33° C | 54% | 1018 hPa | 0 mm | - | - | - |
| 1777120203 | 23.33° C | 51% | 1018 hPa | 0 mm | - | - | - |
| 1777119603 | 23.33° C | 52% | 1018.1 hPa | 0 mm | - | - | - |
| 1777119004 | 23.33° C | 52% | 1018.2 hPa | 0 mm | - | - | - |
| 1777118404 | 23.33° C | 52% | 1018.4 hPa | 0 mm | - | - | - |
| 1777117803 | 23.89° C | 52% | 1018.5 hPa | 0 mm | - | - | - |
| 1777117204 | 23.89° C | 51% | 1018.6 hPa | 0 mm | - | - | - |
| 1777116603 | 23.33° C | 50% | 1018.6 hPa | 0 mm | - | - | - |
| 1777116003 | 23.33° C | 51% | 1018.8 hPa | 0 mm | - | - | - |
| 1777115404 | 21.67° C | 55% | 1019.1 hPa | 0 mm | - | - | - |
| 1777114803 | 21.67° C | 57% | 1019.2 hPa | 0 mm | - | - | - |
| 1777114204 | 20.56° C | 59% | 1019.4 hPa | 0 mm | - | - | - |
| 1777113604 | 20.56° C | 62% | 1019.6 hPa | 0 mm | - | - | - |
| 1777113004 | 20° C | 63% | 1019.8 hPa | 0 mm | - | - | - |
| 1777112403 | 20° C | 66% | 1019.6 hPa | 0 mm | - | - | - |
| 1777111804 | 19.44° C | 65% | 1019.6 hPa | 0 mm | - | - | - |
| 1777111203 | 18.89° C | 69% | 1019.8 hPa | 0 mm | - | - | - |
* Rain latest hour (hover to see other rain measurements)
** Current wind speed in m/s (hover to see current wind gust speed)